When you browse on this site, cookies collect data to enhance your experience and personalize the content and advertising you see.
Visit our Privacy Policy to learn more. By continuing to use the site, you agree to this use of cookies and data.
  • In Spain
  • List of Countries
  • For 7 days
  • Water Temperature
  • Weather Map
  • Weather Widgets
  • user-avatar
    Login

    Hourly Weather Tarim

    Today, 22 August, Thursday

    Time Temperature Precipitation Wind Pressure Humidity
    00:00 +33°C° 0 mm 1 mps 703 mmHg 36%
    01:00 +32°C° 0 mm 1 mps 703 mmHg 42%
    02:00 +31°C° 0 mm 1 mps 703 mmHg 48%
    03:00 +30°C° 0 mm 1 mps 702 mmHg 53%
    04:00 +30°C° 0 mm 1 mps 703 mmHg 55%
    05:00 +30°C° 0 mm 1 mps 703 mmHg 56%
    06:00 +30°C° 0 mm 1 mps 704 mmHg 57%
    07:00 +32°C° 0 mm 1 mps 704 mmHg 46%
    08:00 +35°C° 0 mm 2 mps 704 mmHg 35%
    09:00 +37°C° 0 mm 3 mps 704 mmHg 25%
    10:00 +39°C° 0 mm 3 mps 704 mmHg 21%
    11:00 +41°C° 0 mm 4 mps 704 mmHg 17%
    12:00 +43°C° 0 mm 5 mps 704 mmHg 13%
    13:00 +43°C° 0 mm 5 mps 703 mmHg 12%
    14:00 +45°C° 0 mm 5 mps 702 mmHg 11%
    15:00 +45°C° 0 mm 5 mps 702 mmHg 10%
    16:00 +43°C° 0 mm 5 mps 702 mmHg 11%
    17:00 +42°C° 0 mm 5 mps 702 mmHg 11%
    18:00 +42°C° 0 mm 5 mps 702 mmHg 12%
    19:00 +40°C° 0 mm 5 mps 703 mmHg 19%
    20:00 +38°C° 0 mm 6 mps 703 mmHg 27%
    21:00 +36°C° 0 mm 6 mps 703 mmHg 35%
    22:00 +35°C° 0 mm 4 mps 703 mmHg 36%
    23:00 +34°C° 0 mm 3 mps 703 mmHg 36%

    Tomorrow, 23 August, Friday

    Time Temperature Precipitation Wind Pressure Humidity
    00:00 +33°C° 0 mm 1 mps 703 mmHg 37%
    01:00 +32°C° 0 mm 1 mps 703 mmHg 38%
    02:00 +31°C° 0 mm 1 mps 703 mmHg 38%
    03:00 +31°C° 0 mm 1 mps 702 mmHg 39%
    04:00 +31°C° 0 mm 1 mps 703 mmHg 38%
    05:00 +30°C° 0 mm 1 mps 703 mmHg 38%
    06:00 +30°C° 0 mm 1 mps 703 mmHg 38%
    07:00 +33°C° 0 mm 1 mps 704 mmHg 32%
    08:00 +36°C° 0 mm 2 mps 704 mmHg 25%
    09:00 +38°C° 0 mm 3 mps 704 mmHg 18%
    10:00 +40°C° 0 mm 3 mps 704 mmHg 16%
    11:00 +41°C° 0 mm 2 mps 704 mmHg 14%
    12:00 +43°C° 0 mm 2 mps 704 mmHg 11%
    13:00 +43°C° 0 mm 2 mps 703 mmHg 11%
    14:00 +45°C° 0 mm 3 mps 702 mmHg 10%
    15:00 +45°C° 0 mm 4 mps 702 mmHg 10%
    16:00 +44°C° 0 mm 4 mps 702 mmHg 11%
    17:00 +43°C° 0 mm 4 mps 702 mmHg 12%
    18:00 +43°C° 0 mm 3 mps 702 mmHg 12%
    19:00 +41°C° 0 mm 4 mps 702 mmHg 18%
    20:00 +38°C° 0 mm 4 mps 703 mmHg 24%
    21:00 +37°C° 0 mm 4 mps 703 mmHg 29%
    22:00 +36°C° 0 mm 4 mps 703 mmHg 32%
    23:00 +36°C° 0 mm 3 mps 703 mmHg 34%

    Day after tomorrow, 24 August, Saturday

    Time Temperature Precipitation Wind Pressure Humidity
    00:00 +35°C° 0 mm 2 mps 703 mmHg 37%
    01:00 +35°C° 0 mm 2 mps 703 mmHg 37%
    02:00 +34°C° 0 mm 2 mps 703 mmHg 37%
    03:00 +34°C° 0 mm 2 mps 703 mmHg 37%
    04:00 +32°C° 0 mm 2 mps 703 mmHg 37%
    05:00 +32°C° 0 mm 2 mps 703 mmHg 36%
    06:00 +32°C° 0 mm 2 mps 704 mmHg 35%
    07:00 +35°C° 0 mm 3 mps 704 mmHg 29%
    08:00 +37°C° 0 mm 4 mps 704 mmHg 22%
    09:00 +40°C° 0 mm 5 mps 705 mmHg 16%
    10:00 +42°C° 0 mm 4 mps 704 mmHg 14%
    11:00 +43°C° 0 mm 3 mps 704 mmHg 13%
    12:00 +43°C° 0 mm 2 mps 704 mmHg 11%
    13:00 +43°C° 0 mm 2 mps 703 mmHg 11%
    14:00 +44°C° 0 mm 1 mps 702 mmHg 10%
    15:00 +44°C° 0 mm 1 mps 702 mmHg 10%
    16:00 +43°C° 0 mm 1 mps 702 mmHg 10%
    17:00 +43°C° 0 mm 2 mps 702 mmHg 11%
    18:00 +42°C° 0 mm 2 mps 702 mmHg 12%
    19:00 +42°C° 0 mm 3 mps 703 mmHg 16%
    20:00 +40°C° 0 mm 4 mps 703 mmHg 20%
    21:00 +38°C° 0 mm 4 mps 703 mmHg 24%
    22:00 +37°C° 0 mm 4 mps 703 mmHg 28%
    23:00 +36°C° 0 mm 3 mps 703 mmHg 31%

    25 August, Sunday

    Time Temperature Precipitation Wind Pressure Humidity
    00:00 +35°C° 0 mm 2 mps 703 mmHg 35%
    01:00 +34°C° 0 mm 2 mps 702 mmHg 36%
    02:00 +34°C° 0 mm 2 mps 702 mmHg 38%
    03:00 +32°C° 0 mm 1 mps 702 mmHg 39%
    04:00 +32°C° 0 mm 1 mps 702 mmHg 39%
    05:00 +31°C° 0 mm 1 mps 702 mmHg 38%
    06:00 +31°C° 0 mm 1 mps 703 mmHg 38%
    07:00 +34°C° 0 mm 2 mps 703 mmHg 34%
    08:00 +36°C° 0 mm 2 mps 704 mmHg 29%
    09:00 +39°C° 0 mm 3 mps 704 mmHg 25%
    10:00 +40°C° 0 mm 3 mps 704 mmHg 20%
    11:00 +42°C° 0 mm 2 mps 703 mmHg 15%
    12:00 +45°C° 0 mm 2 mps 703 mmHg 10%
    13:00 +45°C° 0 mm 3 mps 703 mmHg 9%
    14:00 +46°C° 0 mm 3 mps 702 mmHg 9%
    15:00 +46°C° 0 mm 3 mps 702 mmHg 8%
    16:00 +45°C° 0 mm 4 mps 702 mmHg 9%
    17:00 +45°C° 0 mm 5 mps 702 mmHg 9%
    18:00 +45°C° 0 mm 6 mps 702 mmHg 10%
    19:00 +42°C° 0 mm 5 mps 702 mmHg 18%
    20:00 +40°C° 0 mm 4 mps 703 mmHg 26%
    21:00 +37°C° 0 mm 4 mps 703 mmHg 35%
    22:00 +36°C° 0 mm 3 mps 703 mmHg 37%
    23:00 +35°C° 0 mm 2 mps 703 mmHg 39%

    26 August, Monday

    Time Temperature Precipitation Wind Pressure Humidity
    00:00 +35°C° 0 mm 2 mps 702 mmHg 41%
    01:00 +32°C° 0 mm 2 mps 702 mmHg 49%
    02:00 +31°C° 0 mm 3 mps 702 mmHg 57%
    03:00 +29°C° 0 mm 3 mps 702 mmHg 66%
    04:00 +29°C° 0 mm 3 mps 702 mmHg 66%
    05:00 +29°C° 0 mm 2 mps 702 mmHg 67%
    06:00 +28°C° 0 mm 2 mps 703 mmHg 68%
    07:00 +30°C° 0 mm 2 mps 703 mmHg 58%
    08:00 +34°C° 0 mm 3 mps 704 mmHg 49%
    09:00 +36°C° 0 mm 4 mps 704 mmHg 39%
    10:00 +38°C° 0 mm 3 mps 704 mmHg 33%
    11:00 +39°C° 0 mm 3 mps 704 mmHg 27%
    12:00 +41°C° 0 mm 2 mps 703 mmHg 21%
    13:00 +42°C° 0 mm 3 mps 703 mmHg 19%
    14:00 +43°C° 0 mm 4 mps 702 mmHg 17%
    15:00 +43°C° 0 mm 5 mps 702 mmHg 15%
    16:00 +42°C° 0 mm 5 mps 702 mmHg 15%
    17:00 +42°C° 0 mm 5 mps 702 mmHg 15%
    18:00 +41°C° 0 mm 5 mps 702 mmHg 15%
    19:00 +40°C° 0 mm 4 mps 702 mmHg 23%
    20:00 +37°C° 0 mm 4 mps 703 mmHg 31%
    21:00 +36°C° 0 mm 4 mps 703 mmHg 39%
    22:00 +35°C° 0 mm 3 mps 703 mmHg 42%
    23:00 +34°C° 0 mm 2 mps 703 mmHg 45%

    27 August, Tuesday

    Time Temperature Precipitation Wind Pressure Humidity
    00:00 +32°C° 0 mm 1 mps 702 mmHg 48%
    01:00 +32°C° 0 mm 1 mps 702 mmHg 49%
    02:00 +31°C° 0 mm 1 mps 702 mmHg 50%
    03:00 +31°C° 0 mm 1 mps 702 mmHg 51%
    04:00 +30°C° 0 mm 1 mps 702 mmHg 51%
    05:00 +30°C° 0 mm 1 mps 703 mmHg 51%
    06:00 +30°C° 0 mm 1 mps 703 mmHg 52%
    07:00 +32°C° 0 mm 2 mps 703 mmHg 43%
    08:00 +35°C° 0 mm 2 mps 704 mmHg 34%
    09:00 +37°C° 0 mm 2 mps 704 mmHg 25%
    10:00 +39°C° 0 mm 2 mps 704 mmHg 20%
    11:00 +42°C° 0 mm 3 mps 703 mmHg 16%
    12:00 +43°C° 0 mm 3 mps 703 mmHg 12%
    13:00 +43°C° 0 mm 3 mps 702 mmHg 12%
    14:00 +44°C° 0 mm 3 mps 702 mmHg 11%
    15:00 +44°C° 0 mm 3 mps 701 mmHg 11%
    16:00 +43°C° 0 mm 3 mps 701 mmHg 12%
    17:00 +42°C° 0 mm 3 mps 701 mmHg 12%
    18:00 +40°C° 0 mm 2 mps 702 mmHg 13%
    19:00 +39°C° 0 mm 3 mps 702 mmHg 17%
    20:00 +38°C° 0 mm 3 mps 702 mmHg 20%
    21:00 +38°C° 0 mm 4 mps 703 mmHg 24%
    22:00 +37°C° 0 mm 3 mps 702 mmHg 27%
    23:00 +36°C° 0 mm 3 mps 702 mmHg 31%
    Show more